This is the latest recevied weather packets stored in our database for station/object DB0MAK-13. If no packets are shown the sender has not sent any weather packets the latest 1 day(s).
| Time | Temp. | Humidity | Pressure | Rain* | Wind** | Luminosity | Snow |
|---|---|---|---|---|---|---|---|
| 1778082245 | 16.11° C | 69% | 1003.6 hPa | 0 mm | - | - | - |
| 1778081645 | 16.11° C | 69% | 1003.6 hPa | 0 mm | - | - | - |
| 1778081045 | 16.67° C | 66% | 1003.5 hPa | 0 mm | - | - | - |
| 1778080445 | 16.67° C | 66% | 1003.6 hPa | 0 mm | - | - | - |
| 1778079845 | 16.67° C | 63% | 1003.6 hPa | 0 mm | - | - | - |
| 1778079245 | 16.67° C | 64% | 1003.7 hPa | 0 mm | - | - | - |
| 1778078645 | 16.67° C | 65% | 1003.7 hPa | 0 mm | - | - | - |
| 1778078045 | 17.22° C | 62% | 1003.7 hPa | 0 mm | - | - | - |
| 1778077445 | 16.67° C | 62% | 1003.7 hPa | 0 mm | - | - | - |
| 1778076845 | 17.22° C | 61% | 1003.7 hPa | 0 mm | - | - | - |
| 1778076245 | 16.67° C | 63% | 1003.7 hPa | 0 mm | - | - | - |
| 1778075645 | 16.67° C | 62% | 1004 hPa | 0 mm | - | - | - |
| 1778075045 | 16.67° C | 62% | 1004.1 hPa | 0 mm | - | - | - |
| 1778074445 | 16.67° C | 62% | 1004.1 hPa | 0 mm | - | - | - |
| 1778073845 | 16.11° C | 63% | 1005.2 hPa | 0 mm | - | - | - |
| 1778073245 | 16.11° C | 62% | 1005.2 hPa | 0 mm | - | - | - |
| 1778072645 | 16.11° C | 61% | 1005.2 hPa | 0 mm | - | - | - |
| 1778072045 | 16.67° C | 61% | 1005.4 hPa | 0 mm | - | - | - |
| 1778071445 | 16.67° C | 62% | 1005.2 hPa | 0 mm | - | - | - |
| 1778070845 | 16.11° C | 61% | 1005.2 hPa | 0 mm | - | - | - |
| 1778070245 | 16.67° C | 63% | 1005.2 hPa | 0 mm | - | - | - |
| 1778069645 | 16.67° C | 66% | 1005.4 hPa | 0 mm | - | - | - |
| 1778069045 | 16.11° C | 70% | 1005.4 hPa | 0 mm | - | - | - |
| 1778068445 | 16.11° C | 68% | 1005.6 hPa | 0 mm | - | - | - |
| 1778067845 | 16.11° C | 70% | 1005.6 hPa | 0 mm | - | - | - |
* Rain latest hour (hover to see other rain measurements)
** Current wind speed in m/s (hover to see current wind gust speed)